TimeCDT,TemperatureF,Dew PointF,Humidity,Sea Level PressureIn,VisibilityMPH,Wind Direction,Wind SpeedMPH,Gust SpeedMPH,PrecipitationIn,Events,Conditions,WindDirDegrees,DateUTC
12:15 AM,53.6,44.6,72,30.25,10.0,Calm,Calm,-,N/A,,Clear,0,2012-10-13 05:15:00
12:35 AM,52.0,44.2,75,30.24,10.0,Calm,Calm,-,N/A,,Clear,0,2012-10-13 05:35:00
12:55 AM,53.6,44.6,72,30.24,10.0,Calm,Calm,-,N/A,,Clear,0,2012-10-13 05:55:00
1:15 AM,52.7,44.6,74,30.24,10.0,Calm,Calm,-,N/A,,Clear,0,2012-10-13 06:15:00
1:35 AM,51.4,45.0,79,30.24,10.0,Calm,Calm,-,N/A,,Clear,0,2012-10-13 06:35:00
1:55 AM,51.8,46.4,82,30.23,10.0,Calm,Calm,-,N/A,,Clear,0,2012-10-13 06:55:00
2:15 AM,51.8,46.4,82,30.22,10.0,ESE,4.6,-,N/A,,Clear,110,2012-10-13 07:15:00
2:35 AM,52.0,46.6,82,30.21,10.0,ESE,3.5,-,N/A,,Clear,110,2012-10-13 07:35:00
2:55 AM,52.0,47.3,84,30.20,10.0,ESE,3.5,-,N/A,,Clear,120,2012-10-13 07:55:00
3:15 AM,52.0,47.3,84,30.19,10.0,SE,3.5,-,N/A,,Clear,130,2012-10-13 08:15:00
3:35 AM,52.0,47.7,85,30.18,7.0,SE,5.8,-,N/A,,Clear,130,2012-10-13 08:35:00
3:55 AM,52.0,48.2,87,30.18,7.0,SE,4.6,-,N/A,,Clear,140,2012-10-13 08:55:00
4:15 AM,52.3,48.6,87,30.16,7.0,SE,6.9,-,N/A,,Clear,130,2012-10-13 09:15:00
4:35 AM,52.3,48.6,87,30.15,7.0,ESE,5.8,-,N/A,,Clear,120,2012-10-13 09:35:00
4:55 AM,53.2,49.5,87,30.16,7.0,SSE,8.1,-,N/A,,Mostly Cloudy,150,2012-10-13 09:55:00
5:15 AM,55.4,50.0,82,30.16,5.0,SSE,8.1,-,N/A,,Overcast,150,2012-10-13 10:15:00
5:35 AM,54.1,51.1,89,30.15,2.5,SE,6.9,-,N/A,,Overcast,140,2012-10-13 10:35:00
5:55 AM,54.5,51.8,91,30.16,1.8,SSE,4.6,-,N/A,,Overcast,150,2012-10-13 10:55:00
6:15 AM,54.7,52.3,92,30.16,1.5,SSE,4.6,-,N/A,,Overcast,150,2012-10-13 11:15:00
6:55 AM,55.6,53.6,93,30.17,1.8,SE,4.6,-,N/A,,Overcast,140,2012-10-13 11:55:00
7:15 AM,55.9,54.0,93,30.15,2.0,SSE,4.6,-,N/A,,Overcast,150,2012-10-13 12:15:00
7:35 AM,57.2,55.4,94,30.15,1.5,SSE,5.8,-,N/A,,Overcast,150,2012-10-13 12:35:00
7:55 AM,57.4,55.4,93,30.14,1.5,South,6.9,-,N/A,,Overcast,170,2012-10-13 12:55:00
8:15 AM,58.1,56.1,93,30.13,1.2,South,9.2,-,N/A,,Overcast,170,2012-10-13 13:15:00
8:35 AM,59.0,57.2,94,30.14,1.2,South,9.2,-,N/A,,Overcast,180,2012-10-13 13:35:00
9:15 AM,59.2,57.4,94,30.13,1.0,South,9.2,-,N/A,,Overcast,170,2012-10-13 14:15:00
9:35 AM,60.1,58.1,93,30.13,1.8,South,8.1,-,N/A,,Overcast,180,2012-10-13 14:35:00
9:55 AM,60.8,58.6,93,30.12,2.5,South,10.4,-,N/A,,Overcast,170,2012-10-13 14:55:00
10:15 AM,61.3,58.6,91,30.12,2.5,South,12.7,16.1,N/A,,Overcast,190,2012-10-13 15:15:00
10:35 AM,62.6,59.0,88,30.11,3.0,South,11.5,-,N/A,,Overcast,190,2012-10-13 15:35:00
10:55 AM,63.5,59.9,88,30.11,3.0,South,13.8,-,N/A,,Overcast,190,2012-10-13 15:55:00
11:15 AM,66.2,60.8,83,30.10,4.0,South,10.4,17.3,N/A,,Haze,190,2012-10-13 16:15:00
11:35 AM,66.0,60.8,83,30.10,4.0,South,13.8,18.4,N/A,,Haze,190,2012-10-13 16:35:00
11:55 AM,67.3,61.5,82,30.09,4.0,South,18.4,23.0,N/A,,Haze,190,2012-10-13 16:55:00
12:15 PM,67.8,61.9,81,30.08,4.0,South,12.7,18.4,N/A,,Haze,190,2012-10-13 17:15:00
12:35 PM,69.8,61.7,75,30.07,5.0,South,15.0,24.2,N/A,,Haze,190,2012-10-13 17:35:00
12:55 PM,71.2,60.8,69,30.06,7.0,South,17.3,20.7,N/A,,Overcast,190,2012-10-13 17:55:00
1:15 PM,70.7,61.3,72,30.05,7.0,South,15.0,18.4,N/A,,Overcast,180,2012-10-13 18:15:00
1:35 PM,71.6,60.8,69,30.03,7.0,South,13.8,-,N/A,,Overcast,190,2012-10-13 18:35:00
1:55 PM,72.7,60.1,64,30.03,10.0,South,13.8,20.7,N/A,,Overcast,190,2012-10-13 18:55:00
2:15 PM,74.7,60.1,60,30.01,10.0,South,13.8,-,N/A,,Mostly Cloudy,180,2012-10-13 19:15:00
2:35 PM,75.6,58.8,56,30.00,10.0,SSW,26.5,33.4,N/A,,Scattered Clouds,210,2012-10-13 19:35:00
2:55 PM,77.0,59.0,54,29.99,10.0,SSW,21.9,29.9,N/A,,Scattered Clouds,200,2012-10-13 19:55:00
3:15 PM,75.9,58.6,55,29.99,10.0,SSW,27.6,33.4,N/A,,Mostly Cloudy,200,2012-10-13 20:15:00
3:35 PM,77.0,59.0,54,29.99,10.0,SSW,18.4,27.6,N/A,,Overcast,200,2012-10-13 20:35:00
3:55 PM,75.4,59.5,58,29.99,10.0,SSW,16.1,28.8,N/A,,Mostly Cloudy,200,2012-10-13 20:55:00
4:15 PM,75.0,58.8,57,29.98,10.0,SSW,18.4,26.5,N/A,,Scattered Clouds,200,2012-10-13 21:15:00
4:35 PM,74.5,58.3,57,29.98,10.0,SSW,16.1,24.2,N/A,,Scattered Clouds,210,2012-10-13 21:35:00
4:55 PM,74.3,58.6,58,29.98,10.0,SSW,15.0,-,N/A,,Clear,210,2012-10-13 21:55:00
5:15 PM,73.6,59.2,61,29.98,10.0,SSW,13.8,-,N/A,,Mostly Cloudy,200,2012-10-13 22:15:00
5:35 PM,72.9,59.5,63,29.96,10.0,South,6.9,-,N/A,,Scattered Clouds,180,2012-10-13 22:35:00
5:55 PM,72.1,59.9,65,29.96,10.0,South,4.6,-,N/A,,Clear,180,2012-10-13 22:55:00
6:15 PM,71.4,60.1,67,29.97,7.0,SSW,3.5,-,N/A,,Clear,200,2012-10-13 23:15:00
6:35 PM,69.3,60.1,72,29.96,7.0,Calm,Calm,-,N/A,,Clear,0,2012-10-13 23:35:00
6:55 PM,69.1,60.6,74,29.95,7.0,SSE,4.6,-,N/A,,Clear,160,2012-10-13 23:55:00
7:15 PM,70.2,60.1,70,29.96,10.0,South,3.5,-,N/A,,Scattered Clouds,170,2012-10-14 00:15:00
7:35 PM,68.9,59.9,73,29.96,7.0,Calm,Calm,-,N/A,,Mostly Cloudy,0,2012-10-14 00:35:00
7:55 PM,70.7,59.5,68,29.96,10.0,SSE,4.6,-,N/A,,Mostly Cloudy,160,2012-10-14 00:55:00
8:15 PM,70.7,59.0,66,29.95,10.0,SSE,5.8,-,N/A,,Scattered Clouds,150,2012-10-14 01:15:00
8:35 PM,71.1,59.0,66,29.95,10.0,South,6.9,-,N/A,,Scattered Clouds,170,2012-10-14 01:35:00
8:55 PM,70.3,58.6,66,29.94,10.0,SSE,4.6,-,N/A,,Scattered Clouds,150,2012-10-14 01:55:00
9:15 PM,71.2,58.3,64,29.93,10.0,SSE,8.1,-,N/A,,Clear,160,2012-10-14 02:15:00
9:35 PM,71.6,57.2,60,29.93,10.0,SSE,9.2,-,N/A,,Clear,160,2012-10-14 02:35:00
9:55 PM,71.6,57.2,60,29.92,10.0,South,8.1,-,N/A,,Mostly Cloudy,170,2012-10-14 02:55:00
10:15 PM,71.6,57.2,60,29.92,10.0,SSE,11.5,-,N/A,,Scattered Clouds,160,2012-10-14 03:15:00
11:15 PM,71.4,56.7,60,29.88,10.0,SSE,10.4,-,N/A,,Clear,160,2012-10-14 04:15:00
11:35 PM,71.2,56.5,60,29.87,10.0,South,10.4,17.3,N/A,,Clear,170,2012-10-14 04:35:00
11:55 PM,71.6,57.2,60,29.85,10.0,South,11.5,-,N/A,,Clear,170,2012-10-14 04:55:00